[[{"header":{"parameterUnit":"m.s-1","parameterCategory":2,"la1":30.2991,"la2":30.254,"lo1":-89.0895,"lo2":-89.0444,"dy":0.0017,"dx":0.0017,"nx":28,"ny":28,"refTime":"2023-04-26T15:00:00:Z","depth":"0","parameterNumber":2,"parameterNumberName":"U-component_of_CURRENTS"},"data":[0,0,0,0,0,0,0,0,0,0,0,0,0,0,0,0,0,0,0,0,0,0,0,0,0,0,0,0,0,0,0,0,0,0,0,0,0,0,0,0,0,0,0,0,0,0,0,0,0,0,0,0,0,0,0,0,0,0,0.3035,0.3034,0,0.2895,0.2894,0.2892,0.2797,0.2796,0.2795,0.2795,0.2696,0.2694,0.2692,0,0,0,0,0,0,0,0,0,0,0,0,0,0.315,0.3149,0.3035,0.3033,0.3032,0.2896,0.2894,0.2892,0.2797,0.2796,0.2795,0.2795,0.2696,0.2694,0.2692,0,0,0,0,0,0,0,0,0,0,0,0,0,0.3064,0.3148,0.3035,0.2969,0.2961,0.2896,0.2894,0.2891,0.2797,0.2796,0.2795,0.2794,0.2697,0.2694,0.2691,0.2691,0,0,0.2682,0.2681,0,0,0,0,0,0,0,0,0.3069,0.3059,0.298,0.2973,0.2965,0.2863,0.2898,0.2827,0.2797,0.2859,0.2795,0.2794,0.2757,0.2749,0.2723,0.2687,0.2682,0.2682,0.268,0.2678,0.2678,0,0,0,0,0,0,0,0.3075,0.3064,0.2979,0.2978,0.2969,0.2922,0.2909,0.2883,0.2815,0.2853,0.2846,0.2832,0.2753,0.2726,0.272,0.2681,0.2682,0.2679,0.2677,0.2676,0.2582,0.2581,0,0,0,0,0,0,0.3098,0.3071,0.2983,0.2975,0.3016,0.2921,0.2906,0.2896,0.2814,0.28,0.2833,0.2828,0.2732,0.2724,0.2716,0.2647,0.2678,0.2676,0.2674,0.2582,0.2581,0.2581,0,0,0,0,0,0,0.3101,0.3092,0.2989,0.302,0.3003,0.292,0.2909,0.2894,0.2864,0.2798,0.2785,0.2818,0.2731,0.2721,0.2678,0.2645,0.2674,0.2671,0.2583,0.2582,0.2581,0.2549,0,0,0,0,0,0,0.3105,0.3094,0.3099,0.3022,0.3003,0.2961,0.291,0.2892,0.2857,0.2849,0.2782,0.2771,0.2729,0.2683,0.2675,0.2641,0.2669,0.2584,0.2582,0.2581,0.2551,0.2547,0.2544,0,0,0,0,0,0.311,0.3118,0.31,0.309,0.3011,0.2962,0.2949,0.2885,0.2858,0.2853,0.2792,0.2773,0.267,0.268,0.2671,0.2635,0.2584,0.2583,0.2581,0.2553,0.2548,0.2544,0,0,0,0,0,0,0.316,0.3107,0.3086,0.3075,0.303,0.2947,0.2938,0.2893,0.284,0.2833,0.2768,0.2753,0.2707,0.2685,0.2698,0.2607,0.2624,0.262,0.2605,0.26,0.2597,0.2608,0.2666,0,0,0,0,0,0.318,0.3173,0.3113,0.3103,0.3091,0.3018,0.2991,0.2948,0.2888,0.2863,0.2807,0.275,0.2695,0.266,0.2626,0.2577,0.2684,0.2549,0.2546,0.2543,0.2547,0.2677,0.2687,0.2576,0.2576,0.2576,0,0,0.3191,0.3164,0.3156,0.3114,0.3077,0.3044,0.3,0.2967,0.2912,0.2864,0.2789,0.275,0.2686,0.2622,0.2599,0.2594,0.2647,0.2541,0.2538,0.2544,0.2677,0.2688,0.2698,0.2575,0.2575,0.2575,0,0,0.3216,0.3197,0.3204,0.3173,0.3129,0.3075,0.3071,0.2995,0.2941,0.2876,0.2816,0.2753,0.2682,0.2604,0.256,0.2523,0.2638,0.2519,0.2487,0.2612,0.2624,0.2635,0.2866,0.2897,0.2498,0.2498,0.2498,0,0.3236,0.3226,0.3197,0.3192,0.3157,0.3093,0.3072,0.3006,0.2915,0.2861,0.2858,0.2721,0.2662,0.2555,0.2522,0.251,0.2661,0.2503,0.2612,0.2625,0.2637,0.287,0.2905,0.2497,0.2497,0.2497,0.2497,0,0.3257,0.3248,0.325,0.3213,0.3176,0.3152,0.3063,0.3006,0.2939,0.2863,0.2771,0.2695,0.262,0.2571,0.2522,0.2531,0.2647,0.2614,0.2631,0.2647,0.2892,0.2929,0.2494,0.2495,0.2495,0.2496,0,0,0.329,0.3272,0.3265,0.3261,0.3184,0.3157,0.3062,0.2957,0.2912,0.281,0.2761,0.2604,0.2589,0.2541,0.2484,0.2534,0.2742,0.2606,0.2614,0.2853,0.315,0.2985,0.3013,0.2759,0.2763,0.2766,0.3319,0,0.331,0.3322,0.3277,0.3251,0.3251,0.3151,0.3079,0.2973,0.2889,0.2837,0.2716,0.2682,0.2571,0.2577,0.2592,0.2709,0.2829,0.2603,0.3083,0.3099,0.2962,0.3041,0.2803,0.3249,0.3356,0.3363,0.3367,0,0.3326,0.3338,0.3335,0.3292,0.328,0.3246,0.3135,0.3067,0.2946,0.2899,0.2811,0.2769,0.2759,0.2717,0.293,0.2817,0.2991,0.3088,0.3112,0.2984,0.2998,0.3232,0.3315,0.3124,0.3426,0.3421,0.3417,0,0.3371,0.3358,0.3361,0.3346,0.3292,0.3257,0.3214,0.309,0.3047,0.2988,0.3006,0.2952,0.3014,0.3147,0.3238,0.3173,0.3554,0.3506,0.354,0.354,0.3432,0.3408,0.338,0.3737,0.3736,0.3735,0.3733,0,0.3384,0.3382,0.3403,0.3408,0.3407,0.335,0.3327,0.3251,0.3207,0.318,0.309,0.3104,0.3137,0.3275,0.3379,0.356,0.3694,0.3578,0.3646,0.3417,0.3386,0.3285,0.3233,0.3755,0.3751,0.3747,0.3743,0,0.3383,0.3401,0.3422,0.3426,0.3434,0.3435,0.3421,0.3391,0.338,0.3371,0.3383,0.3343,0.3487,0.3531,0.3795,0.3766,0.3813,0.3995,0.3745,0.3763,0.3497,0.3453,0.3464,0.3409,0.4164,0.4163,0.4162,0,0.3364,0.3394,0.3454,0.3469,0.3469,0.3491,0.348,0.3467,0.3448,0.3485,0.3489,0.3607,0.3591,0.3874,0.3848,0.4039,0.3865,0.3942,0.367,0.3457,0.3468,0.3292,0.3233,0.3627,0.3621,0.3617,0.3613,0,0.3331,0.3371,0.3388,0.3458,0.3481,0.3498,0.3512,0.3536,0.3513,0.3538,0.3571,0.3597,0.373,0.3688,0.3822,0.3864,0.3628,0.3853,0.3702,0.3077,0.2827,0.2812,0.3379,0.3574,0.3578,0.3581,0.3583,0.3585,0.3285,0.3304,0.336,0.3391,0.343,0.3447,0.3429,0.3455,0.346,0.3419,0.3543,0.3536,0.3493,0.3565,0.358,0.3325,0.3429,0.3188,0.3204,0.3083,0.2793,0.3269,0.3427,0.343,0.3433,0.3435,0.3437,0,0.3184,0.3225,0.3274,0.3308,0.3303,0.3357,0.3373,0.3319,0.3286,0.3336,0.3338,0.3271,0.3131,0.3063,0.2823,0.2686,0.2575,0.259,0.2301,0.2324,0.2833,0.255,0.2429,0.2429,0.2429,0.2429,0.243,0.243,0.3133,0.3141,0.3178,0.3156,0.317,0.3128,0.3112,0.3065,0.3083,0.299,0.2959,0.2965,0.2771,0.2404,0.2081,0.2048,0.1908,0.1788,0.191,0.2214,0.2269,0.232,0.2032,0.1805,0.1804,0.1219,0.1215,0.1211]},{"header":{"parameterUnit":"m.s-1","parameterCategory":2,"la1":30.2991,"la2":30.254,"lo1":-89.0895,"lo2":-89.0444,"dy":0.0017,"dx":0.0017,"nx":28,"ny":28,"refTime":"2023-04-26T15:00:00:Z","depth":"0","parameterNumber":3,"parameterNumberName":"V-component_of_CURRENTS"},"data":[0,0,0,0,0,0,0,0,0,0,0,0,0,0,0,0,0,0,0,0,0,0,0,0,0,0,0,0,0,0,0,0,0,0,0,0,0,0,0,0,0,0,0,0,0,0,0,0,0,0,0,0,0,0,0,0,0,0,-0.1427,-0.1428,0,-0.1479,-0.1479,-0.148,-0.1512,-0.1512,-0.1513,-0.1513,-0.1484,-0.1483,-0.1481,0,0,0,0,0,0,0,0,0,0,0,0,0,-0.1289,-0.1292,-0.1427,-0.1428,-0.1429,-0.1479,-0.1479,-0.148,-0.1512,-0.1512,-0.1513,-0.1513,-0.1484,-0.1483,-0.1481,0,0,0,0,0,0,0,0,0,0,0,0,0,-0.1343,-0.1293,-0.1427,-0.1453,-0.1456,-0.1479,-0.1479,-0.148,-0.1512,-0.1512,-0.1513,-0.1514,-0.1485,-0.1483,-0.1481,-0.1457,0,0,-0.1476,-0.1475,0,0,0,0,0,0,0,0,-0.134,-0.1348,-0.1448,-0.1451,-0.1455,-0.1492,-0.142,-0.1469,-0.1512,-0.1487,-0.1513,-0.1514,-0.148,-0.1479,-0.1484,-0.1456,-0.1454,-0.1475,-0.1474,-0.1474,-0.1473,0,0,0,0,0,0,0,-0.1337,-0.1346,-0.1444,-0.1449,-0.1453,-0.1439,-0.1448,-0.1429,-0.1476,-0.149,-0.1493,-0.1503,-0.1481,-0.1486,-0.1484,-0.1454,-0.1476,-0.1474,-0.1473,-0.1472,-0.1325,-0.1322,0,0,0,0,0,0,-0.1339,-0.1343,-0.1443,-0.1446,-0.1401,-0.1442,-0.1451,-0.1477,-0.1478,-0.148,-0.1502,-0.1504,-0.1489,-0.1486,-0.1483,-0.1392,-0.1474,-0.1472,-0.1471,-0.1328,-0.1324,-0.1321,0,0,0,0,0,0,-0.1336,-0.1348,-0.1441,-0.1397,-0.1408,-0.1444,-0.1472,-0.1478,-0.1479,-0.1489,-0.1489,-0.1497,-0.1489,-0.1485,-0.1443,-0.1393,-0.1471,-0.147,-0.1331,-0.1327,-0.1323,-0.125,0,0,0,0,0,0,-0.1332,-0.1347,-0.1355,-0.1398,-0.1411,-0.1432,-0.1472,-0.1478,-0.1486,-0.1488,-0.1484,-0.1483,-0.1489,-0.1446,-0.1441,-0.1392,-0.1468,-0.1335,-0.1329,-0.1324,-0.1256,-0.1243,-0.1233,0,0,0,0,0,-0.1327,-0.1329,-0.1355,-0.1367,-0.1425,-0.1431,-0.1435,-0.1461,-0.1484,-0.1467,-0.1464,-0.1483,-0.1408,-0.1442,-0.1438,-0.1387,-0.1337,-0.1331,-0.1325,-0.1261,-0.1246,-0.1233,0,0,0,0,0,0,-0.1256,-0.1335,-0.1364,-0.1386,-0.1401,-0.1437,-0.1427,-0.1452,-0.1441,-0.1439,-0.1455,-0.1451,-0.1395,-0.1396,-0.1433,-0.1325,-0.1372,-0.1364,-0.1325,-0.1311,-0.13,-0.127,-0.1467,0,0,0,0,0,-0.1251,-0.1281,-0.1334,-0.1343,-0.1354,-0.139,-0.1396,-0.1413,-0.1418,-0.1416,-0.141,-0.1393,-0.1365,-0.1344,-0.1322,-0.1265,-0.119,-0.1225,-0.1213,-0.1204,-0.1173,-0.1021,-0.0993,-0.13,-0.13,-0.13,0,0,-0.1224,-0.127,-0.1285,-0.133,-0.1348,-0.1329,-0.1393,-0.1391,-0.1359,-0.141,-0.1349,-0.1356,-0.1343,-0.128,-0.1253,-0.1274,-0.1068,-0.1196,-0.1188,-0.1162,-0.1011,-0.0981,-0.0954,-0.1296,-0.1297,-0.1297,0,0,-0.1167,-0.1225,-0.1224,-0.1233,-0.1261,-0.1277,-0.1274,-0.1298,-0.1293,-0.1249,-0.1273,-0.1243,-0.1202,-0.118,-0.1166,-0.1072,-0.1019,-0.1067,-0.0979,-0.0832,-0.0805,-0.0781,-0.061,-0.0571,-0.1055,-0.1055,-0.1055,0,-0.1121,-0.1143,-0.1212,-0.1197,-0.119,-0.1247,-0.1209,-0.1205,-0.1203,-0.1178,-0.1209,-0.1132,-0.1144,-0.1056,-0.1036,-0.1045,-0.0941,-0.1041,-0.0816,-0.079,-0.0766,-0.0598,-0.0555,-0.1051,-0.1051,-0.1052,-0.1052,0,-0.1063,-0.1068,-0.1057,-0.1067,-0.106,-0.1037,-0.1051,-0.1026,-0.1035,-0.1031,-0.0956,-0.0965,-0.0914,-0.0921,-0.0957,-0.0804,-0.0775,-0.0825,-0.0851,-0.073,-0.0561,-0.0518,-0.1044,-0.1046,-0.1047,-0.1048,0,0,-0.0969,-0.1012,-0.1,-0.0988,-0.0992,-0.0977,-0.0917,-0.0878,-0.0821,-0.0814,-0.0713,-0.071,-0.0725,-0.0709,-0.0742,-0.0642,-0.0407,-0.0659,-0.0654,-0.0489,-0.003,-0.0102,-0.0063,-0.0409,-0.0402,-0.0397,0.0034,0,-0.0887,-0.0857,-0.0885,-0.0809,-0.0792,-0.081,-0.0746,-0.0715,-0.0688,-0.0599,-0.0601,-0.0524,-0.0638,-0.0604,-0.0522,-0.0434,-0.0295,-0.0516,-0.0171,-0.0159,-0.024,-0.0017,-0.007,0.0301,0.0076,0.0083,0.0088,0,-0.08,-0.0801,-0.0742,-0.0709,-0.0695,-0.0648,-0.0561,-0.051,-0.0422,-0.0392,-0.0328,-0.0321,-0.0194,-0.0306,-0.0046,-0.0173,-0.0081,-0.002,-0.0003,-0.0066,-0.0153,0.0138,0.0387,0.0253,0.0154,0.0148,0.0144,0,-0.0714,-0.068,-0.0637,-0.0626,-0.0599,-0.0553,-0.0518,-0.0446,-0.0375,-0.0243,-0.015,-0.004,0.007,0.0191,0.0258,0.0159,0.0567,0.0452,0.0492,0.049,0.0515,0.05,0.0672,0.0688,0.0687,0.0686,0.0685,0,-0.062,-0.0573,-0.06,-0.0574,-0.0491,-0.0487,-0.0368,-0.0322,-0.0201,-0.0065,-0.0038,0.0119,0.0204,0.0393,0.0427,0.0616,0.0725,0.0588,0.0618,0.0538,0.0521,0.0452,0.0365,0.0702,0.0699,0.0696,0.0693,0,-0.0527,-0.0546,-0.0498,-0.0477,-0.0459,-0.0398,-0.0301,-0.0208,-0.0103,0.0096,0.0161,0.0341,0.0594,0.0674,0.0924,0.0863,0.0981,0.1047,0.0947,0.0952,0.0774,0.0693,0.1008,0.0971,0.1206,0.1207,0.1208,0,-0.0482,-0.0461,-0.044,-0.041,-0.0397,-0.032,-0.0255,-0.0167,-0.0055,0.0232,0.0357,0.0641,0.0839,0.116,0.116,0.1301,0.1145,0.1259,0.1014,0.0832,0.0767,0.0728,0.0668,0.1126,0.1126,0.1126,0.1127,0,-0.0404,-0.0407,-0.0385,-0.034,-0.0281,-0.0195,-0.0092,0.0011,0.0171,0.036,0.0662,0.0854,0.1138,0.1274,0.1374,0.1375,0.1137,0.1259,0.1138,0.0795,0.0713,0.0664,0.0777,0.1128,0.1128,0.1127,0.1127,0.1127,-0.0351,-0.0328,-0.0318,-0.026,-0.019,-0.007,0.0024,0.0166,0.0373,0.067,0.0839,0.1152,0.1271,0.1416,0.1365,0.1176,0.1215,0.1051,0.1011,0.1021,0.0843,0.0942,0.1231,0.1231,0.1232,0.1232,0.1232,0,-0.0298,-0.0286,-0.0237,-0.0165,-0.0071,-0.0044,0.0135,0.0257,0.0501,0.0782,0.1033,0.1342,0.1356,0.1324,0.1142,0.0954,0.0869,0.0839,0.0768,0.0747,0.0924,0.0758,0.0873,0.0873,0.0873,0.0873,0.0873,0.0873,-0.0271,-0.0236,-0.0221,-0.0083,-0.0014,0.013,0.0237,0.0431,0.0639,0.102,0.128,0.148,0.1523,0.1115,0.0781,0.0684,0.0549,0.056,0.0523,0.0559,0.0574,0.0587,0.0409,0.0449,0.0449,0.0335,0.0333,0.0332]}],[{"header":{"parameterUnit":"m.s-1","parameterCategory":2,"la1":30.2991,"la2":30.254,"lo1":-89.0895,"lo2":-89.0444,"dy":0.0017,"dx":0.0017,"nx":28,"ny":28,"refTime":"2023-04-26T15:00:00:Z","depth":"2","parameterNumber":2,"parameterNumberName":"U-component_of_CURRENTS"},"data":[0,0,0,0,0,0,0,0,0,0,0,0,0,0,0,0,0,0,0,0,0,0,0,0,0,0,0,0,0,0,0,0,0,0,0,0,0,0,0,0,0,0,0,0,0,0,0,0,0,0,0,0,0,0,0,0,0,0,0.2285,0.2285,0,0.2302,0.2302,0.2303,0.2293,0.2293,0.2293,0.2292,0.2238,0.2237,0.2236,0,0,0,0,0,0,0,0,0,0,0,0,0,0.2357,0.2355,0.2285,0.2285,0.2286,0.2302,0.2302,0.2303,0.2294,0.2293,0.2293,0.2292,0.2239,0.2237,0.2236,0,0,0,0,0,0,0,0,0,0,0,0,0,0.2344,0.2355,0.2285,0.2284,0.2284,0.2302,0.2302,0.2303,0.2294,0.2293,0.2293,0.2292,0.2239,0.2237,0.2236,0.2236,0,0,0.2231,0.223,0,0,0,0,0,0,0,0,0.2345,0.2341,0.2284,0.2284,0.2284,0.2296,0.2308,0.2277,0.2294,0.2289,0.2292,0.2292,0.2252,0.2249,0.2253,0.2233,0.2231,0.223,0.2229,0.2229,0.2228,0,0,0,0,0,0,0,0.2345,0.2341,0.229,0.2284,0.2285,0.2322,0.2318,0.2303,0.2271,0.2289,0.2289,0.2293,0.2252,0.2255,0.2251,0.223,0.223,0.2229,0.2228,0.2227,0.2211,0.2211,0,0,0,0,0,0,0.234,0.2341,0.229,0.2291,0.2315,0.2321,0.2317,0.2292,0.2272,0.227,0.2293,0.2293,0.2258,0.2253,0.2249,0.2246,0.2229,0.2227,0.2226,0.221,0.2211,0.2211,0,0,0,0,0,0,0.2341,0.2334,0.2289,0.232,0.2317,0.2319,0.2292,0.2293,0.2301,0.2277,0.2273,0.2302,0.2257,0.2252,0.2246,0.2243,0.2226,0.2225,0.2209,0.221,0.2211,0.2239,0,0,0,0,0,0,0.2342,0.2334,0.2327,0.2318,0.2315,0.23,0.2293,0.2293,0.2305,0.2304,0.2283,0.2277,0.2256,0.2249,0.2244,0.2241,0.2223,0.2209,0.221,0.2211,0.2238,0.2241,0.2244,0,0,0,0,0,0.2345,0.2324,0.2325,0.2321,0.2299,0.2301,0.2303,0.2303,0.2306,0.2309,0.2302,0.2278,0.2252,0.2248,0.2243,0.2239,0.2208,0.221,0.2211,0.2236,0.224,0.2244,0,0,0,0,0,0,0.2358,0.2322,0.2323,0.2294,0.2302,0.23,0.2305,0.2311,0.231,0.2309,0.2288,0.2282,0.2276,0.2259,0.2255,0.2239,0.2225,0.2225,0.2246,0.225,0.2253,0.2235,0.2222,0,0,0,0,0,0.2358,0.2329,0.2319,0.2305,0.2303,0.231,0.2316,0.2317,0.2313,0.2313,0.2302,0.2288,0.2277,0.2266,0.2254,0.2245,0.2295,0.2239,0.2242,0.2245,0.2228,0.2342,0.2355,0.2216,0.2216,0.2216,0,0,0.2365,0.2341,0.2329,0.2307,0.2311,0.2311,0.2311,0.2316,0.2321,0.2306,0.2308,0.2301,0.228,0.2272,0.2267,0.2255,0.2316,0.2247,0.2249,0.223,0.2345,0.2359,0.2371,0.2217,0.2216,0.2216,0,0,0.2361,0.2338,0.2316,0.2318,0.2319,0.2321,0.2325,0.2326,0.2329,0.2335,0.2325,0.2317,0.2304,0.2285,0.2274,0.2287,0.2335,0.2289,0.2281,0.2393,0.2406,0.2418,0.2527,0.2549,0.2284,0.2284,0.2284,0,0.238,0.2342,0.232,0.2309,0.2315,0.2324,0.2325,0.2329,0.2334,0.2338,0.2336,0.2327,0.2304,0.2293,0.2289,0.229,0.2376,0.2268,0.24,0.2412,0.2424,0.2533,0.2556,0.2285,0.2285,0.2285,0.2285,0,0.2356,0.2345,0.2337,0.2317,0.2319,0.2326,0.2325,0.2334,0.2343,0.2348,0.2351,0.2333,0.2331,0.2319,0.2299,0.2352,0.2397,0.2402,0.2395,0.244,0.2552,0.2576,0.2288,0.2287,0.2287,0.2286,0,0,0.2367,0.2327,0.2335,0.2332,0.2327,0.2327,0.2332,0.234,0.2361,0.2355,0.2381,0.2338,0.2346,0.2333,0.2321,0.2379,0.2531,0.2422,0.2427,0.2537,0.2811,0.2554,0.2556,0.259,0.2593,0.2596,0.2867,0,0.2374,0.235,0.2331,0.2339,0.2329,0.2337,0.2347,0.2354,0.2371,0.2402,0.2379,0.2409,0.235,0.2374,0.2416,0.2516,0.2591,0.2457,0.2742,0.275,0.2521,0.2571,0.232,0.2514,0.2891,0.2895,0.2898,0,0.2363,0.2349,0.2342,0.2343,0.2344,0.2363,0.2389,0.2404,0.2434,0.2451,0.2459,0.2472,0.2519,0.2488,0.2665,0.2603,0.2699,0.2764,0.2778,0.2531,0.2532,0.2523,0.2543,0.2937,0.2934,0.2931,0.2929,0,0.2366,0.2365,0.236,0.236,0.2359,0.238,0.2405,0.2429,0.2453,0.2517,0.2557,0.26,0.2668,0.2777,0.2844,0.2821,0.3055,0.306,0.2914,0.2901,0.2726,0.2686,0.3202,0.3202,0.3201,0.3201,0.32,0,0.2361,0.2368,0.2375,0.2372,0.2401,0.2405,0.2456,0.2479,0.2536,0.2573,0.2605,0.2647,0.2757,0.286,0.2925,0.2961,0.314,0.2908,0.2941,0.2725,0.2684,0.3065,0.3045,0.3211,0.3209,0.3207,0.3205,0,0.2346,0.2351,0.2351,0.2373,0.2394,0.2421,0.2491,0.2518,0.2595,0.2655,0.2691,0.277,0.2877,0.2936,0.313,0.3058,0.3133,0.3105,0.2813,0.2796,0.2905,0.2885,0.3015,0.3008,0.3002,0.2997,0.2993,0,0.2322,0.2318,0.235,0.2362,0.2382,0.2436,0.2463,0.2538,0.2567,0.2703,0.2722,0.2845,0.2825,0.2948,0.2879,0.2915,0.3043,0.2699,0.2536,0.2861,0.2883,0.2871,0.2859,0.2386,0.2377,0.237,0.2364,0,0.227,0.2294,0.2291,0.2317,0.2354,0.2394,0.2453,0.2479,0.2564,0.2605,0.2677,0.269,0.272,0.2563,0.2519,0.2508,0.2647,0.254,0.305,0.2387,0.2265,0.2286,0.2297,0.23,0.2306,0.2311,0.2314,0.2317,0.2228,0.2219,0.2215,0.2245,0.2287,0.2313,0.2305,0.2335,0.2347,0.231,0.248,0.2365,0.2358,0.2073,0.2046,0.2019,0.2199,0.213,0.2157,0.2191,0.1983,0.1847,0.177,0.1773,0.1776,0.1779,0.1781,0,0.2108,0.2119,0.2134,0.2131,0.213,0.222,0.2244,0.2173,0.2096,0.2043,0.2016,0.174,0.16,0.1643,0.1479,0.1453,0.1496,0.1419,0.1492,0.1553,0.1609,0.1375,0.1001,0.0999,0.0998,0.0996,0,0,0.2036,0.1987,0.1998,0.1956,0.1991,0.195,0.195,0.1827,0.1739,0.1486,0.1342,0.1377,0.148,0.1169,0.1158,0.1069,0.1301,0.1009,0.1625,0.1765,0.1819,0.1996,0.1699,0,0,0,0,0]},{"header":{"parameterUnit":"m.s-1","parameterCategory":2,"la1":30.2991,"la2":30.254,"lo1":-89.0895,"lo2":-89.0444,"dy":0.0017,"dx":0.0017,"nx":28,"ny":28,"refTime":"2023-04-26T15:00:00:Z","depth":"2","parameterNumber":3,"parameterNumberName":"V-component_of_CURRENTS"},"data":[0,0,0,0,0,0,0,0,0,0,0,0,0,0,0,0,0,0,0,0,0,0,0,0,0,0,0,0,0,0,0,0,0,0,0,0,0,0,0,0,0,0,0,0,0,0,0,0,0,0,0,0,0,0,0,0,0,0,0.0331,0.0331,0,0.0306,0.0305,0.0304,0.0238,0.0237,0.0236,0.0235,0.0097,0.0094,0.0092,0,0,0,0,0,0,0,0,0,0,0,0,0,0.034,0.034,0.0331,0.0331,0.0331,0.0306,0.0305,0.0304,0.0238,0.0237,0.0235,0.0234,0.0098,0.0094,0.0091,0,0,0,0,0,0,0,0,0,0,0,0,0,0.0324,0.0339,0.0331,0.0297,0.0294,0.0306,0.0305,0.0304,0.0238,0.0237,0.0235,0.0233,0.0099,0.0095,0.0091,0.01,0,0,0.0079,0.0077,0,0,0,0,0,0,0,0,0.0325,0.0323,0.0302,0.03,0.0297,0.0276,0.0258,0.0231,0.0239,0.0256,0.0235,0.0233,0.015,0.0142,0.0137,0.0093,0.0087,0.0078,0.0076,0.0074,0.0073,0,0,0,0,0,0,0,0.0326,0.0324,0.0317,0.0303,0.0299,0.029,0.0285,0.0253,0.0208,0.0254,0.025,0.0254,0.0147,0.0141,0.0133,0.0085,0.0079,0.0075,0.0073,0.0071,-0.0043,-0.0044,0,0,0,0,0,0,0.0337,0.0325,0.0318,0.0317,0.0311,0.0291,0.0286,0.0282,0.021,0.02,0.0255,0.0251,0.0149,0.0138,0.0128,0.0065,0.0074,0.0071,0.0068,-0.0043,-0.0043,-0.0044,0,0,0,0,0,0,0.0337,0.0337,0.0319,0.0324,0.0321,0.0293,0.0289,0.0282,0.0243,0.0213,0.0199,0.022,0.0147,0.0133,0.0085,0.0061,0.0069,0.0065,-0.0042,-0.0043,-0.0044,-0.0018,0,0,0,0,0,0,0.0338,0.0337,0.0316,0.0324,0.0322,0.0311,0.029,0.0283,0.0252,0.0244,0.0179,0.0166,0.0145,0.0091,0.0081,0.0056,0.0062,-0.0041,-0.0042,-0.0043,-0.0018,-0.0018,-0.0018,0,0,0,0,0,0.0338,0.032,0.0315,0.0313,0.0301,0.0311,0.0308,0.0281,0.0251,0.0237,0.0197,0.0166,0.0075,0.0088,0.0076,0.0049,-0.004,-0.0042,-0.0043,-0.0018,-0.0018,-0.0018,0,0,0,0,0,0,0.0297,0.0312,0.0306,0.0288,0.0294,0.0301,0.0281,0.0266,0.0225,0.0202,0.0165,0.0151,0.0099,0.0072,0.0087,0.0012,0.0009,0.0005,0.0032,0.0032,0.0032,0.0044,0.0059,0,0,0,0,0,0.0287,0.0276,0.0297,0.0275,0.0282,0.0276,0.0267,0.0255,0.0234,0.0212,0.0169,0.0122,0.0091,0.0059,0.0027,-0.0012,0.0002,-0.0041,-0.0041,-0.004,-0.0039,-0.002,-0.0018,-0.0049,-0.0049,-0.0049,0,0,0.0262,0.0268,0.0259,0.0266,0.0265,0.0281,0.0264,0.0249,0.0241,0.0203,0.0152,0.0118,0.0082,0.0043,0.0015,0.0011,-0.0021,-0.0042,-0.0041,-0.004,-0.0021,-0.0018,-0.0015,-0.005,-0.005,-0.005,0,0,0.0225,0.022,0.0207,0.0226,0.0232,0.0249,0.0241,0.0237,0.0209,0.0175,0.0148,0.0106,0.0042,0.0026,0.0008,-0.0013,-0.0017,-0.0042,-0.0039,-0.0021,-0.0017,-0.0014,0.0029,0.0036,-0.0047,-0.0047,-0.0047,0,0.0191,0.0186,0.0203,0.0211,0.0227,0.0237,0.0244,0.0234,0.0204,0.018,0.0153,0.0077,0.004,0.0017,0.0006,-0.0013,0.0005,-0.0032,-0.0018,-0.0015,-0.0012,0.0031,0.0039,-0.0046,-0.0046,-0.0046,-0.0046,0,0.0166,0.0162,0.0161,0.0186,0.0206,0.021,0.0235,0.0216,0.0184,0.0169,0.0115,0.008,0.0037,0.0014,-0.0001,-0.0008,0.0003,-0.0012,-0.001,-0.0006,0.0038,0.0045,-0.0044,-0.0045,-0.0045,-0.0045,0,0,0.0107,0.0134,0.0133,0.0143,0.0195,0.0209,0.0214,0.022,0.0204,0.0158,0.0139,0.0078,0.005,0.003,0.0007,0.0011,0.005,0.0003,0.0003,0.006,0.0111,0.0083,0.0088,0.0038,0.0039,0.004,0.0143,0,0.0082,0.0082,0.0114,0.0132,0.0151,0.0188,0.0199,0.0202,0.0187,0.0172,0.0135,0.0107,0.0062,0.0043,0.004,0.0063,0.0065,0.0024,0.0086,0.0089,0.0074,0.0093,0.0063,0.0148,0.015,0.0151,0.0152,0,0.0068,0.0071,0.0073,0.0113,0.0123,0.0135,0.0165,0.0173,0.0177,0.0159,0.0136,0.0126,0.0135,0.009,0.0127,0.0105,0.0098,0.0107,0.0111,0.0078,0.0072,0.0138,0.0161,0.0164,0.0163,0.0162,0.0162,0,0.0041,0.0055,0.0049,0.0067,0.0111,0.0103,0.0122,0.0143,0.0161,0.0159,0.0184,0.0172,0.02,0.0189,0.0209,0.0171,0.0267,0.0221,0.0186,0.0186,0.0168,0.0163,0.022,0.022,0.022,0.022,0.0219,0,0.0035,0.0039,0.0021,0.0026,0.0029,0.0064,0.0074,0.0087,0.0127,0.0185,0.0169,0.0247,0.0225,0.0283,0.0256,0.0272,0.0308,0.0198,0.0206,0.0175,0.0171,0.0179,0.0173,0.0224,0.0223,0.0222,0.0221,0,0.0045,0.0025,0.003,0.0025,0.0023,0.0026,0.0076,0.01,0.0126,0.0218,0.0235,0.0331,0.0419,0.0402,0.0434,0.0353,0.0355,0.0335,0.0314,0.0314,0.0248,0.0242,0.0306,0.0306,0.0305,0.0305,0.0305,0,0.0064,0.0053,0.0028,0.0034,0.003,0.0036,0.0066,0.0092,0.0153,0.0302,0.0377,0.0479,0.0605,0.0639,0.0514,0.0459,0.0429,0.0345,0.0231,0.0253,0.0255,0.0249,0.0243,0.0239,0.0239,0.0238,0.0238,0,0.0116,0.0082,0.0081,0.0075,0.0082,0.0121,0.0163,0.0222,0.0306,0.0432,0.0655,0.077,0.0763,0.0726,0.0574,0.0504,0.0344,0.0327,0.039,0.0201,0.0192,0.0193,0.019,0.0233,0.0233,0.0234,0.0234,0.0234,0.0165,0.0163,0.014,0.0151,0.0166,0.0235,0.0297,0.0402,0.0565,0.0766,0.0855,0.1,0.0853,0.0682,0.055,0.0342,0.0345,0.0236,0.0237,0.0239,0.0191,0.018,0.0212,0.0213,0.0213,0.0213,0.0214,0,0.0243,0.0221,0.0232,0.0253,0.0307,0.0281,0.04,0.0507,0.0747,0.0886,0.1074,0.0962,0.0884,0.071,0.039,0.0215,0.0183,0.0157,0.0149,0.0154,0.0159,0.0106,0.0106,0.0105,0.0105,0.0104,0,0,0.0281,0.0297,0.0294,0.0392,0.0406,0.0499,0.0576,0.0751,0.0871,0.1057,0.1103,0.1138,0.0919,0.0665,0.0442,0.0275,0.0249,0.0232,0.033,0.0349,0.0356,0.021,0.0135,0,0,0,0,0]}],[{"header":{"parameterUnit":"m.s-1","parameterCategory":2,"la1":30.2991,"la2":30.254,"lo1":-89.0895,"lo2":-89.0444,"dy":0.0017,"dx":0.0017,"nx":28,"ny":28,"refTime":"2023-04-26T15:00:00:Z","depth":"4","parameterNumber":2,"parameterNumberName":"U-component_of_CURRENTS"},"data":[0,0,0,0,0,0,0,0,0,0,0,0,0,0,0,0,0,0,0,0,0,0,0,0,0,0,0,0,0,0,0,0,0,0,0,0,0,0,0,0,0,0,0,0,0,0,0,0,0,0,0,0,0,0,0,0,0,0,-0.0058,-0.0057,0,-0.0015,-0.0015,-0.0015,0.0021,0.0021,0.0022,0.0023,0.0162,0.0165,0.0168,0,0,0,0,0,0,0,0,0,0,0,0,0,-0.0097,-0.0097,-0.0058,-0.0057,-0.0056,-0.0015,-0.0015,-0.0015,0.0021,0.0022,0.0022,0.0023,0.0161,0.0165,0.0169,0,0,0,0,0,0,0,0,0,0,0,0,0,-0.0072,-0.0097,-0.0058,-0.0032,-0.003,-0.0015,-0.0015,-0.0014,0.0021,0.0022,0.0022,0.0023,0.016,0.0164,0.0169,0.0183,0,0,0.0184,0.0186,0,0,0,0,0,0,0,0,-0.0073,-0.007,-0.0037,-0.0034,-0.0031,-0.0,0.0022,0.0057,0.002,-0.0,0.0023,0.0024,0.0117,0.0126,0.0128,0.0189,0.0195,0.0184,0.0187,0.0189,0.0191,0,0,0,0,0,0,0,-0.0075,-0.0072,-0.0043,-0.0036,-0.0033,-0.0019,-0.0015,0.0029,0.0054,0.0002,0.0005,0.0012,0.012,0.0123,0.0132,0.0197,0.0184,0.0189,0.0191,0.0193,0.0394,0.0396,0,0,0,0,0,0,-0.0078,-0.0074,-0.0044,-0.0041,-0.0048,-0.0019,-0.0015,-0.0012,0.0051,0.0062,0.0011,0.0014,0.0115,0.0126,0.0137,0.0265,0.0189,0.0194,0.0197,0.0391,0.0394,0.0397,0,0,0,0,0,0,-0.0079,-0.0076,-0.0046,-0.0055,-0.005,-0.0019,-0.0017,-0.0012,0.0013,0.0058,0.007,0.0033,0.0116,0.013,0.0217,0.0267,0.0196,0.02,0.0388,0.0392,0.0396,0.0453,0,0,0,0,0,0,-0.0081,-0.0077,-0.0073,-0.0055,-0.0049,-0.0013,-0.0017,-0.0012,0.0016,0.002,0.0081,0.0093,0.0117,0.021,0.0222,0.0273,0.0204,0.0385,0.039,0.0394,0.0448,0.0458,0.0467,0,0,0,0,0,-0.0082,-0.0079,-0.0073,-0.0069,-0.0046,-0.0012,-0.0007,0.0015,0.0016,0.0038,0.009,0.0092,0.0247,0.0216,0.0229,0.0283,0.0383,0.0389,0.0394,0.0444,0.0456,0.0467,0,0,0,0,0,0,-0.0081,-0.0075,-0.0068,-0.0059,-0.0026,-0.0005,0.0005,0.0025,0.0076,0.0088,0.0124,0.0142,0.0242,0.0251,0.0215,0.0354,0.0315,0.0324,0.0349,0.0361,0.037,0.0367,0.0208,0,0,0,0,0,-0.0084,-0.0082,-0.006,-0.0045,-0.0041,-0.0016,0.0,0.0027,0.0071,0.0093,0.0142,0.02,0.027,0.0305,0.0366,0.0433,0.0435,0.0477,0.0486,0.0494,0.0502,0.0565,0.058,0.0415,0.0415,0.0415,0,0,-0.0078,-0.0072,-0.007,-0.0045,-0.0032,-0.0002,-0.0004,0.0033,0.0082,0.0103,0.0186,0.0243,0.0299,0.039,0.0433,0.0405,0.0537,0.0501,0.0507,0.0511,0.0572,0.0588,0.0602,0.0419,0.0418,0.0417,0,0,-0.0058,-0.0066,-0.0055,-0.0037,-0.0002,0.0019,0.0035,0.0079,0.0116,0.0204,0.0241,0.0314,0.0416,0.046,0.0495,0.0586,0.0593,0.0624,0.0663,0.0724,0.0737,0.0749,0.0743,0.0754,0.0618,0.0618,0.0618,0,-0.0054,-0.0033,-0.0039,-0.002,0.0001,0.003,0.0066,0.0106,0.019,0.0232,0.0245,0.0409,0.0442,0.0551,0.0592,0.0605,0.0636,0.0612,0.0735,0.0747,0.0758,0.0749,0.0761,0.0622,0.0621,0.0621,0.0621,0,-0.0024,-0.0004,0.0001,0.0032,0.006,0.0094,0.0142,0.0194,0.0244,0.0298,0.0428,0.0491,0.0586,0.0613,0.0636,0.0749,0.0741,0.0746,0.07,0.0778,0.0763,0.0774,0.0627,0.0625,0.0624,0.0623,0,0,-0.0048,0.0011,0.0012,0.0037,0.0088,0.0113,0.0187,0.0265,0.0322,0.042,0.0513,0.0626,0.0672,0.0715,0.076,0.0808,0.0893,0.0827,0.0829,0.0809,0.1012,0.0912,0.0914,0.0949,0.0952,0.0955,0.0957,0,-0.0026,0.0034,0.0059,0.0118,0.0141,0.0181,0.0251,0.0329,0.0405,0.0504,0.0583,0.0703,0.0711,0.0784,0.0837,0.0898,0.0933,0.0889,0.095,0.095,0.0844,0.0928,0.0965,0.0965,0.0968,0.0969,0.0971,0,-0.0024,0.002,0.0093,0.0161,0.0173,0.0229,0.032,0.0396,0.0523,0.0588,0.0704,0.0784,0.0893,0.089,0.1002,0.0995,0.1015,0.1033,0.1034,0.0931,0.0873,0.088,0.099,0.0989,0.0987,0.0986,0.0985,0,-0.005,0.0025,0.0094,0.0112,0.0207,0.0257,0.0323,0.0435,0.0501,0.0667,0.0736,0.0875,0.0967,0.1032,0.1061,0.1072,0.1152,0.1153,0.1065,0.1054,0.1113,0.11,0.1227,0.1227,0.1227,0.1227,0.1227,0,-0.0055,-0.0021,0.0094,0.012,0.0199,0.0271,0.0369,0.0448,0.0577,0.0663,0.0801,0.0885,0.1027,0.1083,0.1093,0.1097,0.1171,0.1085,0.107,0.1131,0.1122,0.1118,0.1105,0.1227,0.1227,0.1227,0.1227,0,-0.0109,-0.0024,0.0024,0.0139,0.019,0.0243,0.0374,0.0428,0.0577,0.0694,0.0761,0.0926,0.1026,0.1083,0.1173,0.1127,0.1132,0.1106,0.1125,0.1108,0.0983,0.0974,0.1035,0.1032,0.1029,0.1027,0.1025,0,-0.012,-0.009,0.0014,0.0052,0.011,0.0211,0.0275,0.0421,0.0482,0.0691,0.0735,0.0902,0.0995,0.1018,0.1089,0.109,0.1078,0.1046,0.1067,0.0995,0.0974,0.0969,0.0963,0.1021,0.1021,0.102,0.1019,0,-0.0172,-0.0141,-0.0103,-0.0022,0.0048,0.0114,0.0229,0.0276,0.0451,0.058,0.0715,0.0804,0.0909,0.0983,0.0992,0.0984,0.1057,0.102,0.1026,0.1046,0.0979,0.096,0.0957,0.101,0.1012,0.1012,0.1013,0,-0.0229,-0.023,-0.0173,-0.0104,-0.0048,0.0012,0.0089,0.0198,0.0298,0.0548,0.0578,0.075,0.0895,0.0925,0.0915,0.0923,0.0931,0.0884,0.0898,0.0909,0.087,0.0767,0.0735,0,0,0,0,0,-0.0265,-0.0262,-0.0242,-0.0168,-0.0138,-0.0077,0.0046,0.0129,0.0316,0.0384,0.0495,0.0591,0.0693,0.0766,0.0757,0.0842,0.0902,0.0821,0.0845,0.0961,0.0971,0.094,0,0,0,0,0,0,-0.0286,-0.0283,-0.0269,-0.0248,-0.021,-0.0154,-0.008,0.005,0.0115,0.0308,0.0371,0.0515,0.0618,0.0692,0.0735,0.0753,0.0744,0.0919,0.0916,0.0955,0.0964,0.0973,0.0944,0,0,0,0,0]},{"header":{"parameterUnit":"m.s-1","parameterCategory":2,"la1":30.2991,"la2":30.254,"lo1":-89.0895,"lo2":-89.0444,"dy":0.0017,"dx":0.0017,"nx":28,"ny":28,"refTime":"2023-04-26T15:00:00:Z","depth":"4","parameterNumber":3,"parameterNumberName":"V-component_of_CURRENTS"},"data":[0,0,0,0,0,0,0,0,0,0,0,0,0,0,0,0,0,0,0,0,0,0,0,0,0,0,0,0,0,0,0,0,0,0,0,0,0,0,0,0,0,0,0,0,0,0,0,0,0,0,0,0,0,0,0,0,0,0,0.0638,0.0639,0,0.067,0.067,0.067,0.0704,0.0704,0.0705,0.0706,0.073,0.0729,0.0729,0,0,0,0,0,0,0,0,0,0,0,0,0,0.0596,0.0597,0.0638,0.0639,0.064,0.067,0.067,0.067,0.0703,0.0704,0.0705,0.0706,0.073,0.0729,0.0729,0,0,0,0,0,0,0,0,0,0,0,0,0,0.0616,0.0597,0.0638,0.0663,0.0666,0.067,0.067,0.067,0.0703,0.0705,0.0706,0.0707,0.073,0.0729,0.0729,0.0703,0,0,0.0729,0.0728,0,0,0,0,0,0,0,0,0.0615,0.0617,0.0659,0.0661,0.0664,0.0687,0.0664,0.0682,0.0703,0.0685,0.0706,0.0708,0.0716,0.0717,0.0715,0.0704,0.0705,0.0729,0.0728,0.0728,0.0728,0,0,0,0,0,0,0,0.0614,0.0616,0.0647,0.0659,0.0663,0.0669,0.0673,0.0667,0.069,0.0687,0.069,0.0699,0.0717,0.0715,0.0716,0.0706,0.0729,0.0728,0.0728,0.0728,0.0678,0.0677,0,0,0,0,0,0,0.0616,0.0615,0.0646,0.0648,0.0647,0.0669,0.0673,0.0676,0.0691,0.0695,0.0698,0.0701,0.0715,0.0716,0.0717,0.073,0.0728,0.0728,0.0728,0.068,0.0678,0.0677,0,0,0,0,0,0,0.0615,0.0619,0.0645,0.0636,0.064,0.0669,0.0671,0.0676,0.0703,0.07,0.0704,0.0725,0.0716,0.0717,0.0737,0.073,0.0728,0.0728,0.0681,0.0679,0.0678,0.0728,0,0,0,0,0,0,0.0614,0.0618,0.0631,0.0636,0.0641,0.0663,0.0671,0.0676,0.0707,0.0711,0.0723,0.0725,0.0717,0.0737,0.0737,0.0729,0.0728,0.0683,0.068,0.0678,0.0728,0.0728,0.0729,0,0,0,0,0,0.0612,0.0615,0.0631,0.0636,0.0654,0.0664,0.0667,0.0689,0.0707,0.0718,0.0732,0.0727,0.0721,0.0738,0.0737,0.0729,0.0684,0.0681,0.0678,0.0728,0.0728,0.0729,0,0,0,0,0,0,0.0605,0.0619,0.0637,0.0647,0.0667,0.0672,0.0684,0.0704,0.0722,0.0737,0.0733,0.0735,0.0743,0.0724,0.0742,0.0701,0.0692,0.0689,0.073,0.073,0.073,0.0728,0.0727,0,0,0,0,0,0.061,0.0621,0.0636,0.0651,0.0657,0.0678,0.0691,0.0712,0.0725,0.0736,0.0741,0.0735,0.0722,0.0723,0.0711,0.0703,0.0659,0.0686,0.0686,0.0687,0.068,0.0611,0.0605,0.0668,0.0668,0.0668,0,0,0.0612,0.0625,0.0632,0.0652,0.0665,0.067,0.0688,0.0716,0.0727,0.0734,0.075,0.0748,0.0722,0.0713,0.0711,0.0704,0.0644,0.0684,0.0685,0.0678,0.0608,0.0602,0.0596,0.0666,0.0667,0.0667,0,0,0.0616,0.0631,0.0641,0.0648,0.0681,0.0689,0.0704,0.0724,0.0741,0.0761,0.0757,0.075,0.0745,0.0713,0.0697,0.0685,0.0653,0.0683,0.0685,0.0618,0.0613,0.0608,0.0543,0.0531,0.0678,0.0678,0.0678,0,0.0629,0.063,0.0647,0.0651,0.0659,0.0697,0.0704,0.0718,0.0748,0.0754,0.0772,0.0742,0.073,0.0694,0.0695,0.0686,0.0653,0.0696,0.0621,0.0615,0.0608,0.0543,0.053,0.068,0.068,0.068,0.068,0,0.062,0.0632,0.0634,0.065,0.0663,0.0675,0.0695,0.0715,0.0745,0.0756,0.0754,0.0736,0.0712,0.0702,0.0705,0.0653,0.0645,0.0638,0.0629,0.0606,0.0537,0.0523,0.0683,0.0682,0.0682,0.0681,0,0,0.0624,0.0629,0.0637,0.0642,0.0662,0.0674,0.0687,0.0703,0.0714,0.0734,0.0725,0.0705,0.0712,0.0691,0.0681,0.0631,0.0565,0.0631,0.0627,0.0582,0.0427,0.0435,0.0419,0.0563,0.0561,0.0559,0.0398,0,0.062,0.0631,0.0632,0.0643,0.0642,0.0662,0.0674,0.0699,0.0713,0.0713,0.0697,0.0692,0.0702,0.0702,0.0653,0.0591,0.053,0.0609,0.0442,0.0436,0.0459,0.0403,0.0552,0.0387,0.0384,0.0381,0.0379,0,0.0609,0.0615,0.0634,0.064,0.0644,0.0665,0.0683,0.0699,0.0704,0.0712,0.0697,0.0693,0.0637,0.0647,0.0511,0.0573,0.0503,0.0449,0.0441,0.0419,0.0417,0.041,0.0352,0.0354,0.0356,0.0358,0.036,0,0.0611,0.0614,0.0636,0.0635,0.0653,0.0674,0.0696,0.0713,0.0729,0.0716,0.0714,0.0655,0.0629,0.0533,0.0443,0.0477,0.0283,0.03,0.0229,0.0228,0.0252,0.0259,0.018,0.018,0.0181,0.0181,0.0182,0,0.0599,0.061,0.0646,0.0654,0.069,0.0696,0.0734,0.0744,0.0746,0.0754,0.0728,0.0698,0.0605,0.0502,0.0414,0.0273,0.0246,0.021,0.0181,0.0275,0.0287,0.0241,0.025,0.0175,0.0177,0.0178,0.0179,0,0.0596,0.0625,0.0639,0.0671,0.0702,0.0731,0.0782,0.0786,0.0794,0.0791,0.079,0.0718,0.0589,0.0471,0.0295,0.0235,0.0095,0.0048,0.0145,0.0127,0.0091,0.0104,-0.0054,-0.0055,-0.0056,-0.0057,-0.0058,0,0.0586,0.0603,0.0666,0.0709,0.0736,0.0785,0.0823,0.0833,0.0827,0.0797,0.078,0.0677,0.0616,0.0347,0.024,0.0039,0.0032,-0.0046,0.0039,0.0076,0.0063,0.0078,0.0093,-0.006,-0.006,-0.006,-0.006,0,0.0546,0.0593,0.061,0.0701,0.0759,0.0802,0.0845,0.0838,0.0831,0.0846,0.0749,0.0643,0.0495,0.0332,0.0177,0.0044,0.0003,-0.0057,-0.0054,0.0025,0.0067,0.0059,0.0074,-0.0064,-0.0064,-0.0063,-0.0063,0,0.0516,0.0529,0.0581,0.0656,0.0747,0.0789,0.0807,0.0786,0.078,0.0752,0.0717,0.0583,0.0524,0.0331,0.0183,0.0058,0.0049,0.0024,0.0023,0.0025,0.012,0.019,0.005,0,0,0,0,0,0.0469,0.0487,0.0538,0.0605,0.0696,0.0748,0.0807,0.0804,0.0807,0.0739,0.0728,0.0594,0.0401,0.0314,0.0185,0.0171,0.0025,0.0019,-0.0005,-0.0084,-0.008,0.0022,0,0,0,0,0,0,0.044,0.0471,0.0497,0.0553,0.0607,0.0668,0.0709,0.0704,0.0662,0.0673,0.056,0.0567,0.0365,0.0463,0.0179,0.0147,0.0117,-0.0053,-0.0055,-0.0086,-0.0083,-0.0079,0.0027,0,0,0,0,0]}]]